User: anonymous   Login
Location: Hawks Ness
(60.2333°N, 1.1667°W)
Time: 11:39:36
(UTC+00:00)
Language:

Cosmos 1726 - Orbit

View from above orbital plane
View from above orbital plane
View from above satellite
View from above satellite

Ground track
Ground track

The orbit data is extracted from the following two-line orbital elements,

1 16495U 86006A   20217.84884012 +.00000935 +00000-0 +35935-4 0  9998
2 16495 082.4739 001.6855 0013790 133.6660 226.5723 15.25035941890436
Epoch (UTC): 04 August 2020 20:22:19
Eccentricity: 0.0013790
inclination: 82.4739°
perigee height: 481 km
apogee height: 500 km
right ascension of ascending node: 1.6855°
argument of perigee: 133.6660°
revolutions per day: 15.25035941
mean anomaly at epoch: 226.5723°
orbit number at epoch: 89043

The dashed part of the orbit path shows where the satellite is in the earth's shadow,  

DLR